Flag for U.S.A. Weather past 2 weeks in Glendale, California, U.S.A.

Now
96 °F

Sunny.


Feels Like: 93 °F
Forecast: 72 / 98 °F
Wind: 10 mph from South

Location: Burbank-Glendale-Pasadena Airport

Current Time: Aug 27, 2015 at 5:46:30 PM

Latest Report: Aug 27, 2015 at 4:53 PM


Visibility: 10 mi

Pressure: 29.83 "Hg

Humidity: 23%

Dew point: 52 °F

Location of GlendaleLocation

Historic Weather in Glendale — Graph

°F

Glendale temperature yesterday

Maximum temperature yesterday: 95 °F (at 2:53 PM)
Minimum temperature yesterday: 75 °F (at 6:53 AM)
Average temperature yesterday: 84 °F

Past Weeks' High & Low Weather Summary

 TemperatureHumidityPressure
High102 °F (Aug 15, 1:53 PM)88% (Aug 19, 4:56 AM)29.95 "Hg (Aug 19, 4:56 AM)
Low66 °F (Aug 20, 2:53 AM)7% (Aug 13, 5:53 PM)29.75 "Hg (Aug 16, 6:53 PM)
Average79 °F52%29.87 "Hg
* Reported Aug 12 3:53 PM — Aug 27 3:53 PM, Glendale, Weather by CustomWeather, © 2015

Note: Actual official high and low records may vary slightly from our data, if they occured in-between our weather recording intervals... More about our weather records

Advertising

Glendale weather history for previous 24 hours

 ConditionsComfort  
Time TempWeatherWind HumidityBarometerVisibility
3:53 PM
Thu, Aug 27
97 °FSunny.10 mph21%29.85 "Hg10 mi
2:53 PM98 °FSunny.12 mph20%29.87 "Hg10 mi
1:53 PM96 °FSunny.10 mph26%29.90 "Hg10 mi
12:53 PM96 °FSunny.10 mph29%29.91 "Hg10 mi
11:53 AM93 °FSunny.7 mph31%29.93 "Hg10 mi
10:53 AM91 °FSunny.5 mph32%29.95 "Hg10 mi
9:53 AM86 °FSunny.No wind39%29.95 "Hg10 mi
8:53 AM81 °FSunny.No wind47%29.95 "Hg10 mi
7:53 AM77 °FSunny.No wind52%29.94 "Hg10 mi
6:53 AM75 °FClear.No wind48%29.94 "Hg10 mi
5:53 AM74 °FClear.No wind52%29.93 "Hg10 mi
4:53 AM74 °FClear.No wind53%29.93 "Hg10 mi
3:53 AM74 °FClear.6 mph53%29.92 "Hg10 mi
2:53 AM74 °FClear.3 mph60%29.92 "Hg10 mi
1:53 AM75 °FClear.No wind62%29.93 "Hg10 mi
10:53 PM
Wed, Aug 26
79 °FClear.7 mph54%29.92 "Hg10 mi
9:53 PM81 °FClear.3 mph51%29.91 "Hg10 mi
6:53 PM87 °FSunny.8 mph33%29.87 "Hg10 mi
5:53 PM92 °FSunny.8 mph28%29.86 "Hg10 mi
Weather by CustomWeather, © 2015

See weather overviewHow to use our weather pages